Weather History for Fort Polk, LA

Change the Weather History Date:

Friday, February 15, 2013

  Actual Average (KPOE) Record (KPOE)
Temperature  
Mean Temperature 50 °F -  
Max Temperature 63 °F 62 °F 78 °F (2000)
Min Temperature 37 °F 43 °F 28 °F (2007)
Degree Days  
Heating Degree Days 15    
Moisture  
Dew Point 36 °F    
Average Humidity 65    
Maximum Humidity 93    
Minimum Humidity 37    
Precipitation  
Precipitation 0.00 in - - ()
Sea Level Pressure  
Sea Level Pressure 30.19 in    
Wind  
Wind Speed 4 mph (North)    
Max Wind Speed 22 mph    
Max Gust Speed 28 mph    
Visibility 10 miles    
Events      
Averages and records for this station are not official NWS values.
T = Trace of Precipitation, MM = Missing Value Source: NWS Daily Summary

Daily Weather History Graph

Daily Weather History Graph

Search for Another Location

Airport:

Trip Planner

Search our weather history database for the weather conditions in past years. The results will help you decide how hot, cold, wet, or windy it might be!

Date:

Astronomy

Feb. 15, 2013 Rise Set
Actual Time 6:53 AM CST 6:00 PM CST
Civil Twilight 6:28 AM CST 6:25 PM CST
Nautical Twilight 6:00 AM CST 6:53 PM CST
Astronomical Twilight 5:32 AM CST 7:21 PM CST
Moon 9:55 AM CST (2/15) 11:34 PM CST (2/15)
Length of Visible Light 11h 56m
Length of Day
11h 06m
Waxing Crescent, 30% of the Moon is Illuminated
Feb 15
Waxing Crescent
Feb 17
First Quarter
Feb 25
Full
Mar 4
Last Quarter
Mar 11
New

Hourly Weather History & Observations

Time (CST) Temp. Windchill Dew Point Humidity Pressure Visibility Wind Dir Wind Speed Gust Speed Precip Events Conditions
12:53 AM 44.1 °F 42.5 °F 37.9 °F 79% 30.13 in 10.0 mi South 3.5 mph - N/A   Clear
1:53 AM 39.9 °F - 37.9 °F 93% 30.13 in 10.0 mi Calm Calm - N/A   Clear
2:53 AM 39.0 °F - 37.0 °F 93% 30.12 in 10.0 mi Calm Calm - N/A   Clear
3:53 AM 37.9 °F - 36.0 °F 93% 30.12 in 9.0 mi Calm Calm - N/A   Clear
4:53 AM 37.0 °F - 35.1 °F 93% 30.13 in 10.0 mi Calm Calm - N/A   Clear
5:53 AM 37.9 °F - 35.1 °F 89% 30.15 in 10.0 mi Calm Calm - N/A   Clear
6:53 AM 37.9 °F - 35.1 °F 89% 30.18 in 10.0 mi Calm Calm - N/A   Clear
7:53 AM 44.1 °F - 39.9 °F 85% 30.19 in 10.0 mi Calm Calm - N/A   Clear
8:53 AM 51.1 °F - 39.9 °F 66% 30.21 in 10.0 mi North 4.6 mph - N/A   Clear
9:53 AM 55.9 °F - 37.9 °F 51% 30.21 in 10.0 mi NNE 9.2 mph - N/A   Clear
10:53 AM 59.0 °F - 36.0 °F 42% 30.20 in 10.0 mi NNW 6.9 mph - N/A   Clear
11:53 AM 61.0 °F - 36.0 °F 39% 30.19 in 10.0 mi North 5.8 mph - N/A   Clear
12:53 PM 61.0 °F - 37.9 °F 42% 30.17 in 10.0 mi NNE 9.2 mph - N/A   Clear
1:53 PM 63.0 °F - 36.0 °F 37% 30.15 in 10.0 mi NNE 8.1 mph - N/A   Clear
2:53 PM 61.0 °F - 35.1 °F 38% 30.15 in 10.0 mi NNW 10.4 mph 20.7 mph N/A   Overcast
3:53 PM 60.1 °F - 34.0 °F 38% 30.15 in 10.0 mi NNE 10.4 mph 20.7 mph N/A   Clear
4:53 PM 55.9 °F - 37.9 °F 51% 30.17 in 10.0 mi North 21.9 mph 27.6 mph N/A   Partly Cloudy
5:53 PM 51.1 °F - 37.0 °F 59% 30.20 in 10.0 mi North 13.8 mph 19.6 mph N/A   Scattered Clouds
6:53 PM 48.9 °F - 37.0 °F 64% 30.22 in 10.0 mi North 6.9 mph - N/A   Overcast
7:53 PM 48.9 °F - 37.0 °F 64% 30.23 in 10.0 mi NNW 6.9 mph - N/A   Overcast
8:53 PM 48.0 °F - 37.0 °F 66% 30.25 in 10.0 mi NNW 6.9 mph - N/A   Overcast
9:53 PM 46.0 °F 43.1 °F 37.9 °F 73% 30.27 in 10.0 mi NNW 5.8 mph - N/A   Mostly Cloudy
10:53 PM 46.0 °F 42.5 °F 35.1 °F 66% 30.28 in 10.0 mi Variable 6.9 mph - N/A   Scattered Clouds
11:53 PM 46.0 °F 41.9 °F 30.0 °F 54% 30.28 in 10.0 mi NNW 8.1 mph - N/A   Overcast